Showing default

GALILEO 25 (2C1), 43564

Orbit data source: Space-Track

GALILEO 25 (2C1), 43564 is a payload satellite owned by GNSS Agency (ESA) that was launched on Wed, 25 Jul 2018 UTC via an ARIANE 5ES launch vehicle from the French Guiana (FRGUI). Payload-class satellites include a variety of spacecraft equipped with specific instruments for various scientific and technological missions. These include communications satellites like Starlink; space stations such as the ISS; scientific satellites like the Hubble; Earth observation satellites from companies like Planet Labs, Umbra, and HawkEye 360; GPS; miniature CubeSats for education and research; and military/defense satellites.

Loading next visibility...
Identifier
43564, 2018-060A
Orbit
Active
Country
Flag of ESAESA
Related business
Manufacturer
OHB
Mission
Operational Civil Navigation
Bus & Motor
GALILEOSAT, AOCS
Mass
715 kg wet, 700 kg dry
Launch date (UTC)
2018-07-25 (8 years ago)
Launch vehicle
ARIANE 5ES
Launch site
French Guiana (FRGUI)
Object type
Payload
Rocket body
Debris
Shape & HBR
Box + 2 Pan, 7.3 m
Radar Cross Section
9.223 m², Large (>1 m²)

Expand to show TLE details & history
Last TLE update: 5 days ago

TLE from 5 days ago
0 GALILEO 25 (2C1)
1 43564U 18060A   26168.65155293 -.00000090  00000-0  00000-0 0  9996
2 43564  57.1692 341.7677 0002596 303.5364  56.4325  1.70475954 49173
Epoch: 2026-06-17T15:38Z
TLE epoch observation values (Epoch: 2026-06-17T15:38:14.173Z)
Latitude
0.00001°
Longitude
-158.70942°
Altitude
23,218.03 km
Speed
3.67 km/s
True Right ascension
22h 47m 01s
True Declination
0° 00' 00"
Sunlit
Object was in daylight at epoch
Visualization orbit readout
Latitude
Unknown
Longitude
Unknown
Altitude
Unknown
Speed
Unknown
Apparent Right ascension
Unknown
Apparent Declination
Unknown
Sunlit
N/A
Visualization observer readout
Local Sidereal Time
21:25:07
Azimuth
Unknown
Elevation
Unknown
Doppler factor
Unknown
Orbital elements
Apogee altitude
23,229.571 km
Perigee altitude
23,214.203 km
Semi-major axis
29,600.024 km
Eccentricity
0.00026
Inclination
57.1692°
RAAN
341.7677°
Arg. of periapsis
303.5364°
True anomaly
56.45729°
Mean anomaly
56.4325°
Eccentric anomaly
56.4449°
Mean motion
0.42619 °/min
Orbital period
844.69 mins
BSTAR
0
Loading maneuver chart data...
Computing Atmospheric mass density...
Loading historical data...
Loading historical data...
Loading historical data...
Loading historical data...
Loading historical data...
Loading historical data...
Loading historical data...
Other satellites on launch #60 in the year 2018 (2018-07-25 UTC)

Documentation

Showing up to 5 results
|